This is the latest recevied weather packets stored in our database for station/object YU7OR-2. If no packets are shown the sender has not sent any weather packets the latest 10 day(s).
| Time | Temp. | Humidity | Pressure | Rain* | Wind** | Luminosity | Snow |
|---|---|---|---|---|---|---|---|
| 1778004739 | 22.78° C | 45% | 1008.5 hPa | 0 mm | - | - | - |
| 1778004489 | 22.78° C | 45% | 1008.5 hPa | 0 mm | - | - | - |
| 1778004234 | 22.78° C | 45% | 1008.5 hPa | 0 mm | - | - | - |
| 1778003959 | 23.33° C | 44% | 1008.5 hPa | 0 mm | - | - | - |
| 1778003664 | 23.89° C | 45% | 1008.5 hPa | 0 mm | - | - | - |
| 1778003409 | 23.89° C | 44% | 1008.5 hPa | 0 mm | - | - | - |
| 1778003134 | 24.44° C | 45% | 1008.5 hPa | 0 mm | - | - | - |
| 1778002844 | 25° C | 45% | 1008.4 hPa | 0 mm | - | - | - |
| 1778002564 | 25° C | 45% | 1008.4 hPa | 0 mm | - | - | - |
| 1778002299 | 25.56° C | 44% | 1008.5 hPa | 0 mm | - | - | - |
| 1778002024 | 25.56° C | 44% | 1008.5 hPa | 0 mm | - | - | - |
| 1778001784 | 26.11° C | 43% | 1008.5 hPa | 0 mm | - | - | - |
| 1778001539 | 26.67° C | 43% | 1008.5 hPa | 0 mm | - | - | - |
| 1778001279 | 26.67° C | 43% | 1008.5 hPa | 0 mm | - | - | - |
| 1778001019 | 27.22° C | 43% | 1008.5 hPa | 0 mm | - | - | - |
| 1778000769 | 27.22° C | 43% | 1008.5 hPa | 0 mm | - | - | - |
| 1778000504 | 27.22° C | 43% | 1008.6 hPa | 0 mm | - | - | - |
| 1778000255 | 27.22° C | 43% | 1008.7 hPa | 0 mm | - | - | - |
| 1778000014 | 26.67° C | 43% | 1008.5 hPa | 0 mm | - | - | - |
| 1777999754 | 26.67° C | 43% | 1008.7 hPa | 0 mm | - | - | - |
| 1777999454 | 26.67° C | 43% | 1008.8 hPa | 0 mm | - | - | - |
| 1777999214 | 26.11° C | 43% | 1008.6 hPa | 0 mm | - | - | - |
| 1777998944 | 26.11° C | 43% | 1008.6 hPa | 0 mm | - | - | - |
| 1777998664 | 26.11° C | 43% | 1008.6 hPa | 0 mm | - | - | - |
| 1777998419 | 26.11° C | 43% | 1008.6 hPa | 0 mm | - | - | - |
* Rain latest hour (hover to see other rain measurements)
** Current wind speed in m/s (hover to see current wind gust speed)